Miscellaneous Local Product
Issued by NWS Hastings, NE

Home | Current Version | Previous Version | Graphics & Text | Print | Product List | Glossary On
Versions: 1 2 3 4 5 6 7 8 9 10 11 12 13 14 15 16 17 18 19 20 21 22 23 24 25 26 27 28 29 30 31 32 33 34 35 36 37 38 39 40 41 42 43 44 45 46 47 48 49 50
000
AXUS43 KGID 281702
MISGRI

GID CWA HOURLY WEATHER ROUNDUP
NATIONAL WEATHER SERVICE HASTINGS NE
1200 PM CDT SUN SEP 28 2014

NOTE: "FAIR" INDICATES FEW OR NO CLOUDS BELOW 12,000 FEET WITH NO
SIGNIFICANT WEATHER AND/OR OBSTRUCTIONS TO VISIBILITY.

...SOUTH CENTRAL NEBRASKA...

CITY           SKY/WX    TMP DP  RH WIND       PRES   REMARKS
GRAND ISLAND   PTSUNNY   80  61  52 S10       30.10F
HASTINGS       PTSUNNY   76  55  48 S8        30.10S
KEARNEY        SUNNY     75  59  57 S12       30.11F
ORD            MOSUNNY   76  59  55 S10       30.08S
YORK           SUNNY     75  61  60 S12       30.11F
AURORA         SUNNY     77  57  49 S7        30.10F
LEXINGTON      SUNNY     76  60  57 S12       30.10S
HOLDREGE       SUNNY     74  57  55 S12       30.10F
HEBRON         MOSUNNY   75  56  51 S8        30.12S

...NEBRASKA PANHANDLE...

CITY           SKY/WX    TMP DP  RH WIND       PRES   REMARKS
CHADRON        CLOUDY    56  49  77 NE14      30.16R
ALLIANCE       SUNNY     69  53  56 NE15      30.09F
SCOTTSBLUFF    MOSUNNY   68  53  58 NE9       30.09F
SIDNEY         SUNNY     69  53  56 E12       30.08F

...WESTERN AND NORTH CENTRAL NEBRASKA...

CITY           SKY/WX    TMP DP  RH WIND       PRES   REMARKS
VALENTINE      MOSUNNY   72  56  57 VRB3      30.09R
AINSWORTH      MOSUNNY   72  56  57 W6        30.09S
ONEILL         PTSUNNY   73  61  66 E3        30.10S
BROKEN BOW     SUNNY     75  59  57 S9        30.09S
IMPERIAL       SUNNY     76  55  48 S17G26    30.06S
NORTH PLATTE   SUNNY     77  58  51 S13       30.08S
MCCOOK         SUNNY     80  58  46 S20G25    30.07F

...EASTERN NEBRASKA...

CITY           SKY/WX    TMP DP  RH WIND       PRES   REMARKS
NORFOLK        MOSUNNY   78  59  51 S10       30.10S
SO SIOUX CITY  MOSUNNY   76  60  57 SE9       30.12F
TEKAMAH        SUNNY     78  59  51 SE9       30.12S
COLUMBUS       SUNNY     79  59  50 S8        30.12S
ALBION         MOSUNNY   74  58  58 S9        30.10F
OMAHA EPPLEY   MOSUNNY   78  58  49 SE12      30.13F
OFFUTT AFB     SUNNY     78  63  59 SE8       30.13F
MILLARD        SUNNY     78  61  56 SE9       30.13F
LINCOLN        MOSUNNY   75  60  59 SE7       30.13F
NEBRASKA CITY  SUNNY     77  54  44 S12       30.14F
BEATRICE       SUNNY     77  61  57 SW8       30.13S
FALLS CITY     SUNNY     79  59  50 SW9       30.14S

...NORTHERN KANSAS...

CITY           SKY/WX    TMP DP  RH WIND       PRES   REMARKS
GOODLAND       SUNNY     74  57  55 S25G33    30.07R
HILL CITY      SUNNY     78  57  48 S14       30.09S
NORTON         SUNNY     79  54  41 SE12      30.08F
PHILLIPSBURG   SUNNY     79  57  47 SE9       30.09F HAZE
SMITH CENTER   MOSUNNY   75  57  53 SE8       30.11S
BELOIT         SUNNY     81  57  44 S7        30.10S
HAYS           CLOUDY    73  57  56 S12       30.11S
RUSSELL        SUNNY     79  59  50 S9        30.09F
CONCORDIA      PTSUNNY   75  61  61 S12       30.12S
SALINA         SUNNY     79  61  53 S10       30.12S
TOPEKA         SUNNY     80  59  48 VRB6      30.14F



USA.gov is the U.S. government's official web portal to all federal, state and local government web resources and services.